GEFSCGP_con_probscp_180.txt.gz
Probability
0 0 0 0 0 0 0 0 0 0 0 0 0 0 1 2 3 5 10 19 26 27 27 25 22 19 16 16 19 21 22 23 22 21 20 18 17 15 12 10 9 8 6 3
0 0 0 0 0 0 0 0 0 0 0 0 0 0 1 2 3 4 10 19 26 30 32 30 26 23 22 23 23 21 19 21 22 23 21 19 17 16 13 12 10 8 5 3
0 0 0 0 0 0 0 0 0 0 0 0 0 0 0 1 3 5 9 18 27 32 36 37 33 29 29 30 26 20 17 20 23 24 22 20 18 16 14 12 10 8 7 6
0 0 0 0 0 0 0 0 0 0 0 0 0 0 0 1 4 6 9 16 24 31 36 37 35 34 33 32 27 21 20 24 26 25 22 21 19 14 12 12 11 10 9 8
0 0 0 0 0 0 0 0 0 0 0 0 0 0 0 1 3 6 9 13 20 27 32 33 32 34 32 29 26 25 26 27 27 24 21 20 17 13 12 13 13 13 10 9
0 0 0 0 0 0 0 0 0 0 0 0 0 0 0 1 3 5 8 12 18 26 31 31 32 33 31 27 27 29 31 31 27 24 21 20 18 16 14 15 16 13 9 7
0 0 0 0 0 0 0 0 0 0 0 0 0 0 1 2 3 4 8 11 17 25 31 32 32 31 28 27 29 31 32 32 31 28 25 25 23 20 18 19 18 12 6 5
0 0 0 0 0 0 0 0 0 0 0 0 0 1 2 3 3 5 7 11 16 22 26 28 28 26 24 27 31 32 30 30 32 30 29 29 26 21 19 20 18 11 5 4
0 0 0 0 0 0 0 0 0 0 0 0 0 1 2 3 4 5 7 10 15 17 18 20 23 24 25 28 33 34 31 28 28 28 28 27 23 18 19 21 18 13 8 6
0 0 0 0 0 0 0 0 0 0 0 0 0 0 1 3 4 5 6 9 15 17 15 17 23 28 30 30 32 33 30 26 24 24 25 24 21 19 22 24 21 16 12 10
0 0 0 0 0 0 0 0 0 0 0 0 0 0 1 2 3 4 6 9 15 19 19 21 27 33 33 30 27 26 24 22 22 23 25 25 24 24 26 27 24 19 16 14
0 0 0 0 0 0 0 0 0 0 0 0 0 0 1 2 3 5 8 12 16 19 22 27 32 35 33 28 23 20 19 20 22 24 25 27 28 28 30 30 25 21 18 17
1 0 0 0 0 0 0 0 0 0 0 0 0 0 0 1 3 8 13 16 18 21 25 32 37 37 33 28 25 22 21 22 23 24 25 27 30 31 30 30 29 25 22 20
1 0 0 0 0 0 0 0 0 0 0 0 0 0 0 1 4 10 15 19 21 24 27 32 37 38 35 32 31 30 26 24 25 25 26 27 30 30 29 29 30 29 26 24
1 1 0 0 0 0 0 0 0 0 0 0 0 0 1 2 7 12 16 19 21 23 25 28 32 35 35 33 33 33 30 26 25 26 26 28 29 29 28 28 29 30 28 25
1 1 0 0 0 0 0 0 0 0 0 0 0 1 3 6 10 13 15 17 20 23 24 24 27 31 33 31 30 30 29 27 27 26 26 27 28 27 27 28 28 29 27 26
0 0 0 0 0 0 0 0 0 0 0 0 1 2 7 11 14 16 18 19 21 24 25 23 23 26 28 28 28 28 28 28 27 26 24 25 25 24 25 27 27 27 27 26
1 1 0 0 0 0 0 1 2 1 1 1 2 5 11 15 17 20 22 22 22 25 26 25 23 22 23 24 25 26 27 26 24 22 21 22 22 22 23 25 25 25 25 24
3 3 1 0 0 0 1 3 5 4 3 4 5 9 13 16 16 18 21 22 23 26 29 29 26 24 23 22 21 21 21 20 19 18 19 20 20 20 21 23 24 25 24 23
3 4 2 0 1 2 3 5 6 6 7 8 9 12 14 14 15 16 18 21 23 26 31 32 30 27 25 22 18 15 13 12 13 15 18 19 19 18 20 23 25 27 27 25
4 4 2 1 3 5 5 5 8 11 13 14 15 16 16 17 18 18 20 22 23 24 29 31 30 29 26 22 17 13 11 10 11 14 17 17 17 17 19 24 27 29 29 27
8 8 9 7 8 9 9 11 15 18 20 20 19 19 18 20 20 19 21 24 22 22 25 27 26 26 25 20 15 13 13 12 13 16 18 18 17 16 19 25 31 31 31 30
16 16 16 14 13 13 14 18 21 21 21 21 20 18 16 16 15 17 20 22 22 21 22 21 20 21 21 18 15 15 15 15 16 17 19 19 19 19 21 26 30 31 31 30
20 19 17 15 13 14 17 20 21 20 19 19 18 15 13 11 12 15 18 19 21 20 18 16 14 17 19 18 17 17 17 17 17 17 18 20 21 21 22 23 24 24 25 25
16 16 16 15 14 15 17 17 17 16 16 16 17 15 12 11 12 14 15 16 16 17 15 13 11 14 17 18 18 18 18 19 20 20 21 23 24 24 22 19 15 14 15 15
11 14 17 18 17 16 16 15 13 13 13 14 16 16 12 12 13 14 14 12 12 13 13 12 11 13 16 18 17 17 19 21 24 26 26 27 27 25 22 17 11 8 7 7

GEFSCGP_con_probscp_186.txt.gz
Probability
0 0 0 0 0 0 0 0 0 1 0 0 0 0 1 2 6 13 24 43 61 68 73 76 76 75 77 81 80 74 66 55 44 39 37 38 35 29 29 32 29 25 22 22
0 0 0 0 0 0 0 0 1 1 1 0 0 0 0 1 5 13 25 43 59 69 75 80 81 79 79 82 80 77 72 62 50 42 39 39 36 28 27 33 35 29 24 23
0 0 0 0 0 0 0 0 1 1 1 0 0 0 0 0 3 10 22 37 54 69 78 84 87 84 83 85 84 81 80 72 60 49 43 42 39 30 28 34 38 33 26 24
0 0 0 0 0 0 0 0 0 0 0 0 0 0 1 2 3 7 16 30 47 66 80 87 89 87 85 87 86 85 84 78 67 56 50 49 42 33 31 35 37 33 27 23
0 0 0 0 0 0 0 0 0 0 0 0 0 0 2 3 3 5 12 23 41 60 78 88 90 89 86 84 83 83 83 79 70 60 57 54 44 33 32 35 36 33 27 23
0 0 0 0 0 0 0 0 0 0 0 0 0 0 2 4 4 4 8 18 34 53 72 84 89 88 85 81 79 80 82 80 71 61 57 54 45 35 32 34 36 33 28 27
0 0 0 0 0 0 0 0 0 0 0 0 0 0 2 4 4 4 6 15 30 47 65 79 85 86 84 82 80 79 80 79 70 60 56 54 48 39 35 36 37 33 29 28
0 0 0 0 0 0 0 0 0 0 0 0 0 0 2 4 4 5 8 16 28 43 59 72 79 82 81 82 82 79 78 76 70 63 58 56 51 43 39 39 38 35 30 27
0 0 0 0 0 0 0 0 0 0 0 0 0 1 3 4 5 7 11 17 27 39 53 65 73 76 76 77 77 75 74 74 69 65 59 54 49 43 39 40 40 38 34 30
0 0 0 0 0 0 0 0 0 0 0 0 0 1 5 7 7 9 13 19 27 36 48 59 65 70 72 70 67 67 69 70 67 63 57 49 43 40 39 40 42 42 39 36
0 0 0 0 0 0 0 0 0 0 0 0 1 2 5 8 8 9 13 20 27 34 43 51 57 64 68 66 61 60 63 63 60 58 54 47 40 39 42 44 45 46 44 41
0 0 0 0 0 0 0 0 0 0 0 0 1 3 6 8 8 9 12 19 27 34 39 45 52 60 65 64 60 57 57 55 51 50 49 45 40 41 45 48 50 50 47 46
0 0 0 0 0 0 0 0 0 0 0 0 1 3 5 7 8 9 14 20 29 38 42 46 54 60 64 63 59 56 54 50 45 43 43 41 40 42 44 46 48 48 48 48
0 0 0 0 0 0 0 0 0 0 0 0 1 3 6 7 9 12 19 25 33 42 48 53 59 63 64 62 58 55 53 49 44 42 40 40 41 43 42 41 42 43 44 45
1 0 0 0 0 0 0 0 0 0 0 1 2 4 6 9 12 18 25 29 34 42 50 56 61 64 64 60 54 52 52 51 49 45 42 41 43 42 39 37 37 38 39 39
1 0 0 0 0 0 0 0 0 0 0 1 3 6 9 12 18 25 31 33 34 39 46 54 60 61 62 58 52 50 52 55 54 49 43 42 43 42 38 36 35 35 35 34
3 4 3 1 0 0 1 1 0 1 2 3 4 7 12 19 26 33 39 38 37 38 45 53 57 58 59 58 53 50 50 53 52 48 43 41 41 41 39 35 33 32 32 32
7 10 8 3 0 0 1 2 2 3 6 7 6 9 17 27 34 39 42 42 41 43 49 55 55 54 55 55 53 49 46 46 44 42 41 40 38 37 35 32 30 30 30 31
8 11 10 5 1 1 2 4 4 6 8 10 11 16 24 31 36 40 43 45 47 50 54 56 54 52 52 51 49 46 42 39 38 38 38 38 35 33 32 30 30 30 31 32
4 7 9 8 4 3 5 6 5 8 13 17 22 28 32 34 37 41 46 50 52 53 53 53 53 51 50 48 45 42 39 38 38 38 38 36 32 31 30 29 29 31 34 35
1 3 6 8 6 5 8 9 12 21 30 34 38 42 43 42 43 46 52 56 54 50 48 47 48 48 47 45 44 42 40 39 38 39 37 33 30 29 29 30 30 32 34 35
2 3 5 7 9 13 16 19 28 43 52 49 47 49 48 47 47 51 57 59 55 49 45 42 42 43 42 43 45 43 40 39 37 36 33 29 27 26 27 30 32 33 34 33
9 10 10 11 17 23 27 31 40 53 58 52 46 45 46 46 47 52 57 57 52 47 43 39 38 38 39 42 43 41 40 38 35 32 30 28 26 25 26 28 29 30 30 30
16 17 17 18 22 26 30 33 39 47 53 49 42 40 42 42 45 48 51 50 47 41 36 34 33 34 35 36 37 38 38 37 34 30 30 29 27 25 24 23 22 22 22 22
16 18 19 20 21 22 25 29 33 41 47 47 42 40 39 39 41 42 42 41 39 34 29 27 27 28 28 29 30 32 34 34 32 30 29 29 28 24 20 17 14 12 12 12
14 17 19 20 19 19 22 25 30 37 43 44 43 40 38 39 40 39 37 37 36 31 26 24 23 22 23 24 25 27 30 31 31 30 28 27 27 24 18 13 10 7 6 6

GEFSCGP_con_probscp_192.txt.gz
Probability
0 0 0 0 0 0 0 0 0 0 0 1 4 9 13 19 28 38 43 45 47 47 47 51 54 51 43 35 33 32 24 17 15 16 17 16 12 10 9 10 11 11 10 9
0 0 0 0 0 0 0 0 0 0 0 1 4 8 13 20 30 41 48 52 55 53 53 57 61 58 49 41 37 33 25 19 17 17 18 17 13 11 10 10 11 12 9 8
0 0 0 0 0 0 0 0 0 1 1 1 2 5 12 19 30 42 50 57 61 60 61 66 69 68 61 51 44 37 28 22 19 18 18 17 15 12 11 12 13 11 8 6
0 0 0 0 0 0 0 0 0 1 1 0 0 2 8 16 26 37 46 53 59 61 65 69 72 73 69 59 51 44 34 25 21 18 16 16 15 13 11 11 11 8 6 6
0 0 0 0 0 0 0 0 0 0 0 0 0 0 4 11 21 33 43 49 53 58 65 70 73 75 71 62 57 52 42 30 22 18 15 13 12 10 8 7 7 6 5 6
0 0 0 0 0 0 0 0 0 0 0 0 0 0 2 8 19 31 41 47 51 59 68 72 73 75 72 65 60 58 49 35 25 19 14 10 9 7 6 5 6 5 5 6
0 0 0 0 0 0 0 0 0 0 0 0 0 0 0 5 15 26 36 47 57 64 69 72 73 75 75 70 64 60 51 40 30 21 14 9 7 7 6 6 5 5 5 5
0 0 0 0 0 0 0 0 0 0 0 0 0 0 0 3 10 21 33 48 59 65 67 69 72 74 75 72 68 62 54 43 34 26 17 10 7 6 6 6 5 5 5 5
0 0 0 0 0 0 0 0 0 0 0 0 0 0 0 2 7 16 30 43 55 62 65 68 70 71 71 70 66 60 53 43 36 30 23 15 9 6 5 5 6 7 8 7
0 0 0 0 0 0 0 0 0 0 0 0 0 0 1 2 6 13 24 35 48 58 64 67 67 66 65 63 59 53 47 40 35 31 26 19 12 9 7 6 7 9 10 8
0 0 0 0 0 0 0 0 0 0 0 0 0 0 1 3 6 12 20 30 43 54 61 64 61 58 57 56 53 48 43 38 34 29 24 21 16 12 8 6 6 7 8 7
0 0 0 0 0 0 0 0 0 0 0 0 0 0 1 3 8 15 22 30 40 50 56 57 54 52 52 51 49 45 42 39 36 31 24 21 19 14 10 7 5 5 4 4
0 0 0 0 0 0 0 0 0 0 0 0 0 0 2 4 10 19 26 31 38 45 50 50 50 52 53 49 43 39 38 38 36 32 25 19 17 14 11 8 5 5 3 2
0 0 0 0 0 0 0 0 0 0 0 0 0 1 3 5 10 18 26 33 38 43 44 44 47 52 54 49 40 34 33 34 33 32 27 20 17 15 12 9 7 6 5 4
0 0 0 0 0 0 0 0 0 0 0 0 0 2 4 5 8 13 23 31 36 39 41 42 44 47 49 47 40 35 34 32 30 29 27 23 18 15 12 10 8 7 6 6
0 0 0 0 0 0 0 0 0 1 1 0 1 2 4 7 9 13 20 28 33 36 41 44 43 44 45 45 42 38 35 31 28 26 25 22 19 16 13 11 9 7 7 7
0 0 0 0 0 0 0 0 1 3 3 3 3 5 8 11 14 18 23 28 34 39 42 43 42 43 44 44 42 37 34 30 26 24 23 21 19 17 14 11 10 10 10 10
0 0 0 0 0 0 0 0 1 3 5 7 8 9 13 19 23 25 28 32 38 42 42 40 39 40 43 42 38 36 34 31 27 24 22 21 20 18 15 13 13 13 14 15
0 0 0 0 0 0 0 0 0 2 5 9 12 15 21 29 33 32 32 35 40 42 42 39 35 36 38 38 37 37 35 31 27 22 20 19 19 19 17 15 16 17 18 18
0 0 0 0 0 0 0 1 1 1 5 9 13 20 29 36 39 35 34 38 42 43 40 35 31 30 33 34 35 35 33 29 23 19 18 17 17 18 17 16 16 18 18 19
0 0 0 0 0 0 1 4 5 4 7 12 18 26 34 38 39 38 38 40 43 42 38 31 26 26 28 30 31 29 27 23 19 17 15 15 15 15 15 15 15 16 16 16
0 0 0 0 0 0 2 6 8 8 11 19 26 31 34 37 39 40 40 40 39 36 31 27 24 23 23 25 25 22 18 16 15 14 13 12 12 13 14 14 14 13 13 12
0 0 0 0 0 0 2 4 5 5 11 21 28 32 32 34 37 37 37 35 31 27 24 24 23 21 20 20 19 16 13 12 12 11 10 9 9 10 11 12 11 10 10 10
0 0 0 0 0 1 2 2 1 3 10 19 25 29 31 32 33 32 31 28 25 23 22 22 20 17 15 15 14 12 11 12 11 9 7 6 5 5 6 7 7 7 7 8
0 0 0 1 0 1 2 2 2 4 11 18 22 26 30 31 31 28 24 21 21 21 20 19 16 13 12 12 11 10 10 10 9 7 5 3 3 3 3 4 4 4 5 6
0 0 0 1 0 0 1 2 3 5 11 17 21 24 29 30 30 26 21 18 17 18 17 16 15 12 11 11 11 9 8 8 8 6 3 2 2 3 3 3 3 4 4 4

GEFSCGP_con_probscp_198.txt.gz
Probability
0 0 0 0 0 0 0 0 0 0 0 0 2 4 5 6 7 7 7 7 9 9 7 5 5 6 7 7 8 9 8 6 5 5 5 4 4 3 3 2 2 3 3 3
0 0 0 0 0 0 0 0 0 0 0 1 3 4 4 6 7 7 7 8 10 11 10 8 7 7 9 10 12 12 12 10 8 8 7 6 5 4 4 3 3 4 4 4
0 0 0 0 0 0 0 0 0 0 0 1 3 4 4 5 5 5 6 9 12 14 15 14 13 14 16 17 17 16 15 14 13 12 11 11 10 8 7 6 5 6 5 5
0 0 0 0 0 0 0 0 0 0 0 0 1 2 3 3 2 3 5 9 14 19 21 22 22 23 25 25 22 19 18 16 15 15 16 16 15 12 10 8 6 5 5 4
0 0 0 0 0 0 0 0 0 0 0 0 0 0 1 2 1 1 4 9 16 22 27 29 29 30 29 28 24 21 20 18 16 17 18 19 17 14 11 8 4 3 2 3
0 0 0 0 0 0 0 0 0 0 0 0 0 0 0 1 1 2 5 11 19 26 31 32 33 35 33 29 24 21 22 21 18 17 17 18 16 14 10 6 2 1 2 3
0 0 0 0 0 0 0 0 0 0 0 0 0 0 0 0 0 2 7 14 23 31 34 36 40 42 40 35 28 25 26 25 20 16 15 14 13 11 8 5 2 2 3 4
0 0 0 0 0 0 0 0 0 0 0 0 0 0 0 0 0 1 6 14 25 34 37 41 48 51 49 44 37 31 30 27 21 16 12 9 9 9 7 5 3 2 3 4
0 0 0 0 0 0 0 0 0 0 0 0 0 0 0 1 1 1 4 12 23 31 37 43 50 53 51 48 41 36 32 25 18 15 11 8 7 8 7 6 4 4 4 4
0 0 0 0 0 0 0 0 0 0 0 0 0 0 1 2 3 3 5 11 19 28 34 41 46 47 47 47 43 38 32 23 16 14 12 9 9 9 9 8 7 6 5 4
0 0 0 0 0 0 0 0 0 0 0 0 0 0 1 2 4 5 7 10 17 25 30 36 41 42 43 45 42 37 29 21 15 13 12 12 11 10 9 9 8 7 5 4
0 0 0 0 0 0 0 0 0 0 0 0 0 0 1 2 3 6 8 10 14 20 26 34 40 43 43 41 37 32 26 20 16 14 12 13 14 12 9 8 7 5 3 2
0 0 0 0 0 0 0 0 0 0 0 0 0 0 0 1 2 5 8 10 12 16 23 31 38 40 38 34 30 29 27 23 19 17 14 14 15 14 12 10 7 4 2 1
0 0 0 0 0 0 0 0 0 0 0 0 0 0 0 0 2 5 8 11 12 14 18 25 29 30 28 27 26 27 30 28 23 21 17 15 16 16 14 12 9 6 4 3
0 0 0 0 0 1 1 1 0 0 0 0 0 0 0 1 3 7 10 13 15 16 16 18 22 23 23 24 25 27 30 29 25 23 20 17 16 14 13 13 11 10 7 5
0 0 0 0 0 1 2 2 1 0 0 0 0 0 1 2 4 7 10 13 17 17 16 17 22 24 24 25 28 30 30 29 27 25 22 18 15 12 12 12 12 12 11 9
0 0 0 0 0 1 2 2 1 1 1 0 0 1 2 3 5 6 8 13 16 15 16 19 23 26 27 29 32 33 33 32 31 28 23 19 15 13 12 12 12 13 13 12
0 0 0 0 0 0 1 1 1 2 2 1 0 2 3 4 5 7 9 14 16 15 16 19 23 26 29 30 31 33 34 33 32 28 24 19 16 14 13 12 13 14 14 13
0 0 0 0 0 0 0 1 2 2 2 2 1 3 6 6 7 8 11 16 20 19 18 19 21 22 24 25 27 31 34 33 30 26 22 19 17 14 13 13 13 14 14 13
0 0 0 0 0 0 0 1 1 1 2 3 3 5 6 7 8 8 11 16 21 22 20 20 19 19 20 21 25 31 34 32 28 23 20 19 17 15 13 12 13 14 15 14
0 0 0 0 0 0 0 1 1 1 2 3 4 5 6 7 8 9 11 15 19 21 20 19 18 17 18 21 25 29 29 27 24 20 18 16 15 14 13 12 12 13 13 12
0 0 0 0 0 0 1 2 2 2 3 5 6 5 5 7 9 10 12 16 20 20 18 15 15 15 15 19 22 22 20 20 19 16 13 11 11 11 11 11 12 12 11 10
0 0 0 0 0 1 2 3 3 3 4 5 6 4 5 8 9 10 12 16 19 19 15 11 10 11 12 14 16 16 15 15 15 12 9 7 7 8 9 10 10 9 9 9
0 0 0 0 0 1 2 3 3 3 4 6 6 5 6 9 10 9 10 12 14 14 11 9 8 8 8 8 11 12 13 13 12 10 7 5 5 5 6 6 6 5 6 7
0 0 0 0 0 1 2 3 3 3 4 6 7 7 9 11 9 8 7 9 10 9 7 8 9 8 6 5 7 9 10 10 9 6 4 3 3 3 2 2 2 1 2 3
0 0 0 0 0 0 1 3 3 3 5 7 8 9 10 10 8 7 5 7 9 8 6 7 10 10 7 5 5 7 8 8 6 3 1 1 1 1 0 0 0 0 0 1

GEFSCGP_con_probscp_204.txt.gz
Probability
0 0 0 0 0 0 0 0 0 1 0 0 0 0 0 0 1 3 5 6 6 6 7 9 12 14 14 14 15 15 16 16 15 12 10 9 7 6 7 8 8 8 7 6
0 0 0 0 0 0 0 0 0 1 0 0 0 0 0 0 1 2 4 6 6 7 9 13 15 17 17 19 20 19 18 18 17 14 12 11 9 8 8 8 9 9 9 8
0 0 0 0 0 0 0 0 0 0 0 0 0 0 0 0 0 1 3 4 5 7 10 15 20 24 26 27 25 22 21 21 20 17 13 12 12 11 10 10 9 9 9 9
0 0 0 0 0 0 0 0 0 0 0 0 0 0 0 0 0 0 1 2 4 5 7 14 24 32 35 33 29 25 23 23 23 20 15 14 14 13 12 12 10 9 9 8
0 0 0 0 0 0 0 0 0 0 0 0 0 0 0 0 1 0 0 1 3 4 5 12 24 35 38 35 32 30 29 28 27 23 19 17 15 14 13 13 12 10 9 8
0 0 0 0 0 0 0 0 0 0 0 0 0 0 0 0 0 0 0 1 3 5 7 13 23 34 39 37 35 36 37 36 32 25 22 21 18 16 16 15 15 12 10 9
0 0 0 0 0 0 0 0 0 0 0 0 0 0 0 0 0 0 0 1 3 6 9 16 24 33 42 44 42 43 44 41 34 27 24 23 22 20 19 19 18 15 12 11
0 0 0 0 0 0 0 0 0 0 0 0 0 0 0 0 0 0 1 2 3 6 11 17 24 32 40 46 47 47 45 42 37 31 26 24 24 22 21 22 20 17 14 13
0 0 0 0 0 0 0 0 0 0 0 0 0 0 0 1 2 2 3 4 5 8 11 17 23 30 37 44 48 46 45 45 43 36 29 25 24 23 23 23 20 18 16 15
0 0 0 0 0 0 0 0 0 0 0 0 0 0 2 4 6 7 7 8 10 12 15 19 25 31 36 41 45 44 44 45 44 38 30 25 23 22 22 21 19 18 17 16
0 0 0 0 0 0 0 0 0 0 0 0 0 1 4 6 9 11 11 13 15 18 21 23 28 33 35 38 42 44 43 43 41 36 30 24 19 18 18 17 17 17 17 17
0 0 0 0 0 0 0 0 0 0 0 0 0 1 3 6 9 13 15 17 20 23 24 28 33 36 37 38 42 44 44 43 41 34 28 23 18 16 15 14 13 14 15 14
0 0 0 0 0 0 0 0 0 0 0 0 0 1 2 5 10 14 18 20 22 24 26 30 36 39 40 41 43 44 44 43 40 34 29 26 24 21 17 13 12 13 11 10
0 0 0 0 0 0 0 0 0 0 0 0 1 1 2 4 8 13 17 19 20 22 26 31 37 42 45 45 43 43 43 42 41 37 33 31 30 27 22 18 17 15 12 10
0 0 0 0 0 0 0 0 0 0 0 0 1 2 3 4 5 9 13 17 19 21 26 32 38 43 47 47 44 43 43 43 44 41 36 34 35 32 26 23 21 18 15 15
0 0 0 0 0 0 0 0 0 0 0 0 1 2 4 4 5 8 12 16 19 22 27 35 39 43 46 46 45 46 47 47 46 42 38 37 38 35 29 24 23 22 21 21
0 0 0 0 0 0 0 1 1 1 1 1 2 4 4 5 7 10 13 15 20 26 32 38 42 46 48 46 46 50 50 48 46 43 42 40 39 35 31 28 27 27 26 25
0 0 0 0 0 0 0 0 1 2 3 4 6 6 6 6 7 11 14 17 22 31 37 41 44 50 52 50 51 53 50 45 43 45 45 43 39 36 34 31 30 29 27 25
1 0 0 0 0 0 0 0 0 1 4 7 9 8 7 7 5 9 18 24 31 38 41 41 43 50 54 54 55 55 50 43 39 41 44 44 41 39 37 33 30 30 29 28
1 1 0 0 0 0 0 0 0 1 4 8 9 9 10 10 9 15 27 35 41 45 45 44 45 50 53 55 56 55 49 43 39 39 43 45 44 42 39 35 32 32 31 30
1 1 0 0 0 0 1 1 2 4 6 8 9 11 12 15 17 25 34 40 44 47 49 50 52 53 54 55 56 54 48 44 44 43 44 44 43 40 37 35 33 32 30 28
1 1 1 0 0 2 4 5 7 11 11 11 12 11 13 17 22 27 32 35 39 44 49 52 53 53 52 52 50 47 43 41 43 42 40 39 38 34 33 32 31 30 28 25
3 3 2 1 1 3 6 9 12 13 13 12 11 11 12 15 20 24 26 28 31 37 43 46 45 44 44 43 41 38 36 35 35 35 35 33 31 30 29 29 28 28 26 24
4 4 3 2 2 4 6 8 9 9 9 9 9 10 11 12 16 22 24 24 24 28 34 37 35 34 35 35 33 32 32 33 32 31 31 29 27 26 26 25 23 23 22 20
4 4 4 3 3 4 5 5 6 6 6 6 7 8 10 11 14 20 22 19 18 21 26 28 27 28 29 30 30 29 32 34 33 29 26 23 22 21 20 19 16 14 13 12
4 4 4 3 2 3 3 3 4 5 5 5 6 7 8 10 13 17 18 15 14 18 23 24 24 24 27 28 29 29 32 34 32 27 21 18 18 17 15 14 11 8 7 6

GEFSCGP_con_probscp_210.txt.gz
Probability
0 0 0 0 0 0 0 0 0 0 0 1 3 5 4 2 2 6 14 22 29 32 34 37 39 38 40 45 48 47 43 40 36 28 22 19 19 19 15 16 23 27 24 20
0 0 0 0 0 0 0 0 0 0 0 0 2 5 6 3 2 6 13 22 29 34 38 41 44 44 46 52 54 51 47 43 38 32 26 23 23 22 18 18 24 27 23 19
0 0 0 0 0 0 0 0 0 0 0 0 1 5 8 4 2 5 11 18 25 32 40 47 50 51 55 60 60 55 50 47 43 37 31 29 28 25 22 23 26 25 21 18
0 0 0 0 0 0 0 0 0 0 0 0 0 4 8 6 3 4 9 14 20 28 40 50 55 58 61 62 61 59 57 53 48 42 37 34 31 28 26 26 27 26 22 20
0 0 0 0 0 0 0 0 0 0 0 0 0 2 7 8 6 6 8 12 17 27 40 51 57 61 63 62 60 62 64 62 55 47 42 39 35 32 30 29 31 29 25 21
0 0 0 0 0 0 0 0 0 0 0 0 0 1 5 8 8 7 9 12 16 24 39 52 59 63 64 62 62 66 69 68 61 53 48 44 42 39 36 34 34 31 26 22
0 0 0 0 0 0 0 0 0 0 0 0 0 1 2 5 7 7 9 12 15 21 36 52 62 66 66 65 67 73 75 71 65 59 54 50 46 43 38 35 32 29 26 23
0 0 0 0 0 0 0 0 0 0 0 0 1 0 1 4 6 7 9 11 13 20 34 51 64 69 67 67 72 80 81 75 68 61 57 54 49 43 37 32 30 29 26 24
0 0 0 0 0 0 0 0 0 0 0 0 0 0 1 3 5 6 7 9 11 18 32 50 63 66 65 67 74 80 82 79 71 63 58 55 51 45 37 31 30 31 28 24
0 0 0 0 0 0 0 0 0 0 0 0 0 1 2 3 5 5 5 6 9 15 28 46 59 64 64 67 73 78 81 79 72 65 60 57 54 49 42 35 33 35 32 27
0 0 0 0 0 0 0 0 0 0 0 0 1 3 4 5 7 7 8 9 10 13 24 39 53 62 64 66 70 75 77 77 73 67 62 60 58 54 46 40 38 38 36 34
0 0 0 0 0 0 0 0 0 0 0 0 2 3 6 8 11 13 15 16 15 18 25 35 47 58 63 65 69 72 74 74 72 67 61 60 61 57 50 44 41 40 39 38
0 0 0 0 0 0 0 0 0 0 0 0 2 3 6 10 14 19 23 23 22 26 32 39 49 57 63 68 72 74 74 71 69 65 60 60 62 60 53 48 45 42 40 40
0 0 0 0 0 0 0 0 0 0 0 1 2 4 7 10 15 22 26 26 27 32 39 48 56 60 63 69 75 76 73 68 67 66 63 63 64 61 55 50 47 43 40 39
0 0 0 0 0 0 0 0 0 0 0 1 4 5 7 10 14 21 26 28 29 33 39 49 58 62 63 68 73 73 70 67 68 68 66 65 64 62 57 52 49 45 41 38
1 0 0 0 0 0 0 0 0 0 1 3 5 7 9 11 16 22 28 30 31 33 37 46 56 61 64 67 69 69 67 67 68 68 66 65 64 62 58 54 52 50 45 40
2 2 1 0 0 0 0 1 1 1 2 4 6 8 11 14 20 27 32 35 36 37 41 47 53 58 61 64 67 66 64 65 66 66 64 63 63 61 58 56 55 55 50 44
3 4 2 1 0 1 1 2 3 3 5 6 7 8 10 13 19 28 35 40 43 44 46 48 50 52 54 59 62 63 62 63 64 63 61 61 60 60 60 59 57 57 52 48
2 4 4 1 1 2 3 3 4 4 6 8 9 10 11 11 15 23 34 43 49 50 49 48 49 52 56 59 61 61 61 62 63 63 62 61 59 60 62 60 57 55 51 48
2 4 4 3 2 2 3 4 4 5 9 12 12 14 15 15 17 24 35 46 52 53 54 54 55 59 64 66 65 63 62 62 63 64 64 63 61 61 61 57 53 51 49 47
2 3 3 3 3 3 4 6 10 14 20 23 21 19 20 21 23 30 41 48 52 53 56 59 61 65 69 71 70 68 66 64 63 64 64 63 62 59 57 54 50 46 45 44
2 2 3 4 6 10 15 19 24 31 34 32 27 23 23 23 25 31 39 44 47 49 54 59 62 65 69 71 71 70 68 65 62 60 58 57 56 53 50 49 45 42 40 39
5 4 6 8 12 18 27 33 36 37 36 31 25 22 22 24 26 28 32 35 38 42 48 54 57 60 64 66 65 64 61 58 55 52 50 49 48 46 43 41 38 35 33 31
7 7 10 14 18 22 27 30 29 28 25 22 18 17 19 23 26 25 26 30 33 35 39 43 45 48 51 53 52 50 48 47 45 43 42 41 39 36 33 29 26 24 23 23
8 9 11 16 19 21 21 21 19 17 15 13 13 15 17 20 22 21 23 27 30 30 29 31 33 34 36 38 39 38 37 36 35 35 34 33 30 27 23 18 13 12 12 12
8 9 11 15 19 19 19 19 16 13 12 10 11 14 17 18 19 20 22 25 27 26 25 26 27 28 29 30 32 32 32 32 31 30 30 28 26 23 19 13 8 6 6 5

GEFSCGP_con_probscp_216.txt.gz
Probability
0 0 0 0 0 0 0 0 0 0 2 4 7 9 8 6 8 13 17 17 15 14 17 21 24 28 30 30 28 24 18 14 12 9 8 7 4 1 0 2 5 6 8 9
0 0 0 0 0 0 0 0 0 1 2 4 6 8 7 7 9 14 19 20 17 14 16 20 24 29 33 33 32 30 24 17 13 10 8 7 5 3 2 3 5 6 8 9
0 0 0 0 0 0 0 0 0 1 2 4 5 5 5 6 9 14 20 23 20 16 17 19 23 30 37 39 37 36 30 21 15 12 11 11 9 6 5 5 5 6 7 8
0 0 0 0 0 0 0 0 0 0 1 2 3 3 2 5 8 13 19 23 22 19 19 21 24 30 39 43 41 40 36 27 18 15 15 16 13 9 6 6 6 5 6 6
0 0 0 0 0 0 0 0 0 0 0 0 1 1 1 4 9 13 17 21 22 21 22 24 27 30 36 43 44 43 41 33 23 18 17 18 16 10 8 8 7 5 4 5
0 0 0 0 0 0 0 0 0 0 0 0 0 0 0 3 9 15 18 20 22 23 25 28 31 32 34 40 44 44 44 38 27 21 19 19 17 13 11 11 10 7 5 6
0 0 0 0 0 0 0 0 0 0 0 0 0 0 0 3 8 14 19 22 25 26 28 33 38 38 37 42 47 49 48 42 32 25 21 20 17 16 15 14 11 9 8 8
0 0 0 0 0 0 0 0 0 0 0 0 0 0 1 3 7 14 20 26 29 29 31 36 43 45 43 45 52 55 52 47 39 31 25 21 19 18 17 13 11 10 10 10
0 0 0 0 0 0 0 0 0 0 0 0 0 1 2 4 8 14 21 27 32 34 33 37 43 46 45 46 51 55 53 48 43 36 29 23 20 20 19 15 11 11 11 11
0 0 0 0 0 0 0 0 0 0 0 0 1 2 3 5 9 15 20 26 32 35 36 38 42 45 45 46 49 51 50 47 43 38 31 24 20 21 21 18 13 10 10 10
0 0 0 0 0 0 0 0 0 0 0 0 1 2 4 8 12 16 19 23 29 35 37 39 41 43 43 45 49 50 48 46 43 39 32 25 21 22 22 19 12 8 7 7
0 0 0 0 0 0 0 0 0 0 0 0 1 3 7 12 16 19 21 25 30 37 40 40 41 42 42 45 48 49 50 49 46 41 35 28 23 22 21 17 12 7 6 5
0 0 0 0 0 0 0 0 0 0 0 0 2 6 10 14 18 21 27 31 36 40 42 43 44 45 45 46 45 46 49 51 48 43 37 29 24 21 19 15 11 7 5 4
0 0 0 0 0 0 0 0 0 0 0 0 2 6 10 15 19 25 30 36 41 43 43 44 47 49 49 48 45 43 46 50 49 45 38 30 25 22 18 13 9 5 3 2
0 0 0 0 0 0 0 0 0 0 0 1 3 6 10 17 24 30 34 40 46 46 45 44 43 45 47 48 46 44 45 49 52 50 43 34 27 22 17 12 7 3 2 1
0 0 0 0 0 0 0 0 0 0 1 2 4 8 15 24 31 34 37 43 48 48 44 41 38 38 41 45 46 45 45 48 52 52 47 39 32 25 19 13 9 5 3 3
0 0 0 0 0 0 0 0 0 0 1 3 6 13 23 33 36 35 37 42 48 49 45 40 36 35 36 41 44 43 44 45 48 50 48 44 38 30 23 18 14 10 8 7
0 0 0 0 0 0 1 1 1 2 3 5 10 19 28 36 38 36 38 42 45 47 45 40 38 37 38 40 42 43 43 45 46 46 46 46 41 32 27 24 22 19 14 12
0 0 0 0 0 1 2 4 4 4 7 9 13 21 28 33 38 39 39 42 43 43 41 39 38 40 41 41 43 44 45 46 45 43 43 43 39 32 28 28 27 23 19 16
0 0 0 0 0 1 4 7 7 6 8 11 13 18 24 29 34 36 38 42 42 41 40 38 39 42 43 43 44 44 44 44 43 42 40 38 36 33 30 27 25 22 18 15
0 0 0 0 1 3 6 8 8 7 9 12 14 16 19 23 27 31 35 39 38 38 38 38 38 41 42 42 43 43 41 39 38 39 38 36 36 34 30 25 22 20 16 13
1 0 1 1 1 3 6 7 7 8 12 17 18 18 18 19 21 24 28 29 28 29 30 31 31 33 35 37 39 40 38 34 32 33 34 34 34 31 26 22 20 18 16 15
1 1 3 4 4 5 6 7 7 9 15 20 21 20 18 17 17 17 18 18 18 18 19 20 21 23 25 28 31 33 33 30 27 26 28 29 27 23 20 18 16 16 15 15
1 2 4 7 8 10 11 11 10 12 16 20 21 21 18 14 13 12 12 13 13 12 12 13 15 16 16 18 21 23 25 25 24 20 20 22 20 17 13 11 10 10 10 10
0 1 4 6 9 13 15 14 13 15 17 18 19 18 15 12 12 12 12 11 11 9 8 9 11 12 10 10 12 15 17 20 20 16 14 15 15 13 9 6 5 5 5 5
0 1 3 5 7 11 14 13 13 14 15 14 14 14 13 12 12 13 12 11 9 7 6 6 8 9 7 6 7 11 13 16 17 14 12 12 13 11 8 5 4 3 3 3